Time,TemperatureF,DewpointF,PressureIn,WindDirection,WindDirectionDegrees,WindSpeedMPH,WindSpeedGustMPH,Humidity,HourlyPrecipIn,Conditions,Clouds,dailyrainin,SolarRadiationWatts/m^2,SoftwareType,DateUTC
2013-12-08 00:00:00,12.0,9.0,-100.00,ENE,67,1.0,-999.0,89,-99.99,,,-99.99,0.000000,,2013-12-08 05:00:00,
2013-12-08 00:43:00,12.0,9.0,-100.00,ENE,67,1.0,-999.0,89,-99.99,,,-99.99,0.000000,,2013-12-08 05:43:00,
2013-12-08 00:53:00,12.0,9.0,-100.00,ENE,67,1.0,-999.0,89,-99.99,,,-99.99,0.000000,,2013-12-08 05:53:00,
2013-12-08 01:00:00,12.0,9.0,-100.00,ENE,67,0.0,-999.0,87,-99.99,,,-99.99,0.000000,,2013-12-08 06:00:00,
2013-12-08 01:42:00,12.0,9.0,-100.00,ENE,67,0.0,-999.0,87,-99.99,,,-99.99,0.000000,,2013-12-08 06:42:00,
2013-12-08 01:52:00,12.0,9.0,-100.00,ENE,67,0.0,-999.0,87,-99.99,,,-99.99,0.000000,,2013-12-08 06:52:00,
2013-12-08 02:00:00,12.0,9.0,-100.00,SSE,157,0.0,-999.0,90,-99.99,,,-99.99,0.000000,,2013-12-08 07:00:00,
2013-12-08 02:42:00,12.0,9.0,-100.00,SSE,157,0.0,-999.0,90,-99.99,,,-99.99,0.000000,,2013-12-08 07:42:00,
2013-12-08 02:53:00,12.0,9.0,-100.00,SSE,157,0.0,-999.0,90,-99.99,,,-99.99,0.000000,,2013-12-08 07:53:00,
2013-12-08 03:00:00,12.0,10.0,-100.00,South,180,0.0,-999.0,90,-99.99,,,-99.99,0.000000,,2013-12-08 08:00:00,
2013-12-08 03:43:00,12.0,10.0,-100.00,South,180,0.0,-999.0,90,-99.99,,,-99.99,0.000000,,2013-12-08 08:43:00,
2013-12-08 03:52:00,12.0,10.0,-100.00,South,180,0.0,-999.0,90,-99.99,,,-99.99,0.000000,,2013-12-08 08:52:00,
2013-12-08 04:00:00,13.0,11.0,-100.00,ESE,112,1.0,-999.0,90,-99.99,,,-99.99,0.000000,,2013-12-08 09:00:00,
2013-12-08 04:43:00,13.0,11.0,-100.00,ESE,112,1.0,-999.0,90,-99.99,,,-99.99,0.000000,,2013-12-08 09:43:00,
2013-12-08 04:54:00,13.0,11.0,-100.00,ESE,112,1.0,-999.0,90,-99.99,,,-99.99,0.000000,,2013-12-08 09:54:00,
2013-12-08 05:00:00,15.0,12.0,-100.00,NE,45,5.0,-999.0,89,-99.99,,,-99.99,0.000000,,2013-12-08 10:00:00,
2013-12-08 05:43:00,15.0,12.0,-100.00,NE,45,5.0,-999.0,89,-99.99,,,-99.99,0.000000,,2013-12-08 10:43:00,
2013-12-08 05:53:00,15.0,12.0,-100.00,NE,45,5.0,-999.0,89,-99.99,,,-99.99,0.000000,,2013-12-08 10:53:00,
2013-12-08 06:00:00,16.0,13.0,-100.00,ENE,67,6.0,-999.0,87,-99.99,,,-99.99,0.000000,,2013-12-08 11:00:00,
2013-12-08 06:43:00,16.0,13.0,-100.00,ENE,67,6.0,-999.0,87,-99.99,,,-99.99,0.000000,,2013-12-08 11:43:00,
2013-12-08 06:52:00,16.0,13.0,-100.00,ENE,67,6.0,-999.0,87,-99.99,,,-99.99,0.000000,,2013-12-08 11:52:00,
2013-12-08 07:00:00,16.0,12.0,-100.00,East,90,6.0,-999.0,83,-99.99,,,-99.99,0.000000,,2013-12-08 12:00:00,
2013-12-08 07:42:00,16.0,12.0,-100.00,East,90,6.0,-999.0,83,-99.99,,,-99.99,0.000000,,2013-12-08 12:42:00,
2013-12-08 07:53:00,16.0,12.0,-100.00,East,90,6.0,-999.0,83,-99.99,,,-99.99,0.000000,,2013-12-08 12:53:00,
2013-12-08 08:00:00,17.0,12.0,-100.00,East,90,5.0,-999.0,79,-99.99,,,-99.99,0.000000,,2013-12-08 13:00:00,
2013-12-08 08:42:00,17.0,12.0,-100.00,East,90,5.0,-999.0,79,-99.99,,,-99.99,0.000000,,2013-12-08 13:42:00,
2013-12-08 08:53:00,17.0,12.0,-100.00,East,90,5.0,-999.0,79,-99.99,,,-99.99,0.000000,,2013-12-08 13:53:00,
2013-12-08 09:00:00,17.0,12.0,-100.00,ENE,67,8.0,-999.0,79,-99.99,,,-99.99,15.080000,,2013-12-08 14:00:00,
2013-12-08 09:42:00,17.0,12.0,-100.00,ENE,67,8.0,-999.0,79,-99.99,,,-99.99,15.080000,,2013-12-08 14:42:00,
2013-12-08 09:52:00,17.0,12.0,-100.00,ENE,67,8.0,-999.0,79,-99.99,,,-99.99,15.080000,,2013-12-08 14:52:00,
2013-12-08 10:00:00,18.0,12.0,-100.00,ENE,67,11.0,-999.0,76,-99.99,,,-99.99,66.120003,,2013-12-08 15:00:00,
2013-12-08 10:43:00,18.0,12.0,-100.00,ENE,67,11.0,-999.0,76,-99.99,,,-99.99,66.120003,,2013-12-08 15:43:00,
2013-12-08 10:54:00,18.0,12.0,-100.00,ENE,67,11.0,-999.0,76,-99.99,,,-99.99,66.120003,,2013-12-08 15:54:00,
2013-12-08 11:00:00,19.0,12.0,-100.00,ENE,67,10.0,-999.0,72,-99.99,,,-99.99,110.199997,,2013-12-08 16:00:00,
2013-12-08 11:43:00,19.0,12.0,-100.00,ENE,67,10.0,-999.0,72,-99.99,,,-99.99,110.199997,,2013-12-08 16:43:00,
2013-12-08 11:53:00,19.0,12.0,-100.00,ENE,67,10.0,-999.0,72,-99.99,,,-99.99,110.199997,,2013-12-08 16:53:00,
2013-12-08 12:00:00,21.0,13.0,-100.00,ENE,67,11.0,-999.0,70,-99.99,,,-99.99,180.960007,,2013-12-08 17:00:00,
2013-12-08 12:43:00,21.0,13.0,-100.00,ENE,67,11.0,-999.0,70,-99.99,,,-99.99,180.960007,,2013-12-08 17:43:00,
2013-12-08 12:52:00,21.0,13.0,-100.00,ENE,67,11.0,-999.0,70,-99.99,,,-99.99,180.960007,,2013-12-08 17:52:00,
2013-12-08 13:00:00,23.0,15.0,-100.00,East,90,10.0,-999.0,71,-99.99,,,-99.99,182.119995,,2013-12-08 18:00:00,
2013-12-08 13:42:00,23.0,15.0,-100.00,East,90,10.0,-999.0,71,-99.99,,,-99.99,182.119995,,2013-12-08 18:42:00,
2013-12-08 13:52:00,23.0,15.0,-100.00,East,90,10.0,-999.0,71,-99.99,,,-99.99,182.119995,,2013-12-08 18:52:00,
2013-12-08 14:00:00,24.0,16.0,-100.00,East,90,11.0,-999.0,69,-99.99,,,-99.99,128.759995,,2013-12-08 19:00:00,
2013-12-08 14:42:00,24.0,16.0,-100.00,East,90,11.0,-999.0,69,-99.99,,,-99.99,128.759995,,2013-12-08 19:42:00,
2013-12-08 14:52:00,24.0,16.0,-100.00,East,90,11.0,-999.0,69,-99.99,,,-99.99,128.759995,,2013-12-08 19:52:00,
2013-12-08 15:00:00,25.0,16.0,-100.00,East,90,13.0,-999.0,70,-99.99,,,-99.99,81.199997,,2013-12-08 20:00:00,
2013-12-08 15:42:00,25.0,16.0,-100.00,East,90,13.0,-999.0,70,-99.99,,,-99.99,81.199997,,2013-12-08 20:42:00,
2013-12-08 15:53:00,25.0,16.0,-100.00,East,90,13.0,-999.0,70,-99.99,,,-99.99,81.199997,,2013-12-08 20:53:00,
2013-12-08 16:00:00,24.0,19.0,-100.00,East,90,11.0,-999.0,80,-99.99,,,-99.99,34.799999,,2013-12-08 21:00:00,
2013-12-08 16:43:00,24.0,19.0,-100.00,East,90,11.0,-999.0,80,-99.99,,,-99.99,34.799999,,2013-12-08 21:43:00,
2013-12-08 16:53:00,24.0,19.0,-100.00,East,90,11.0,-999.0,80,-99.99,,,-99.99,34.799999,,2013-12-08 21:53:00,
2013-12-08 17:00:00,23.0,20.0,-100.00,East,90,10.0,-999.0,86,-99.99,,,-99.99,12.760000,,2013-12-08 22:00:00,
2013-12-08 17:43:00,23.0,20.0,-100.00,East,90,10.0,-999.0,86,-99.99,,,-99.99,12.760000,,2013-12-08 22:43:00,
2013-12-08 17:53:00,23.0,20.0,-100.00,East,90,10.0,-999.0,86,-99.99,,,-99.99,12.760000,,2013-12-08 22:53:00,
2013-12-08 18:00:00,23.0,20.0,-100.00,East,90,10.0,-999.0,88,-99.99,,,-99.99,0.000000,,2013-12-08 23:00:00,
2013-12-08 18:42:00,23.0,20.0,-100.00,East,90,10.0,-999.0,88,-99.99,,,-99.99,0.000000,,2013-12-08 23:42:00,
2013-12-08 18:53:00,23.0,20.0,-100.00,East,90,10.0,-999.0,88,-99.99,,,-99.99,0.000000,,2013-12-08 23:53:00,
2013-12-08 19:00:00,23.0,22.0,-100.00,East,90,10.0,-999.0,93,-99.99,,,-99.99,0.000000,,2013-12-09 00:00:00,
2013-12-08 19:42:00,23.0,22.0,-100.00,East,90,10.0,-999.0,93,-99.99,,,-99.99,0.000000,,2013-12-09 00:42:00,
2013-12-08 19:52:00,23.0,22.0,-100.00,East,90,10.0,-999.0,93,-99.99,,,-99.99,0.000000,,2013-12-09 00:52:00,
2013-12-08 20:00:00,24.0,23.0,-100.00,East,90,8.0,-999.0,96,-99.99,,,-99.99,0.000000,,2013-12-09 01:00:00,
2013-12-08 20:42:00,24.0,23.0,-100.00,East,90,8.0,-999.0,96,-99.99,,,-99.99,0.000000,,2013-12-09 01:42:00,
2013-12-08 20:52:00,24.0,23.0,-100.00,East,90,8.0,-999.0,96,-99.99,,,-99.99,0.000000,,2013-12-09 01:52:00,
2013-12-08 21:00:00,25.0,24.0,-100.00,East,90,6.0,-999.0,97,-99.99,,,-99.99,0.000000,,2013-12-09 02:00:00,
2013-12-08 21:42:00,25.0,24.0,-100.00,East,90,6.0,-999.0,97,-99.99,,,-99.99,0.000000,,2013-12-09 02:42:00,
2013-12-08 21:53:00,25.0,24.0,-100.00,East,90,6.0,-999.0,97,-99.99,,,-99.99,0.000000,,2013-12-09 02:53:00,
2013-12-08 22:00:00,25.0,24.0,-100.00,ESE,112,4.0,-999.0,97,-99.99,,,-99.99,0.000000,,2013-12-09 03:00:00,
2013-12-08 22:43:00,25.0,24.0,-100.00,ESE,112,4.0,-999.0,97,-99.99,,,-99.99,0.000000,,2013-12-09 03:43:00,
2013-12-08 22:54:00,25.0,24.0,-100.00,ESE,112,4.0,-999.0,97,-99.99,,,-99.99,0.000000,,2013-12-09 03:54:00,
2013-12-08 23:00:00,25.0,24.0,-100.00,SSE,157,3.0,-999.0,98,-99.99,,,-99.99,0.000000,,2013-12-09 04:00:00,
2013-12-08 23:43:00,25.0,24.0,-100.00,SSE,157,3.0,-999.0,98,-99.99,,,-99.99,0.000000,,2013-12-09 04:43:00,
2013-12-08 23:53:00,25.0,24.0,-100.00,SSE,157,3.0,-999.0,98,-99.99,,,-99.99,0.000000,,2013-12-09 04:53:00,